Location: Black Swamp Observatory
(41.3920°N, 84.1250°W)
Time: 14:59:03
(UTC-05:00)

Amateur Radio Satellites - All Passes

Search period start: 10 February 2016 14:29
Search period end: 11 February 2016 14:29
Location: Black Swamp Observatory, 41.3920°N, 84.1250°W

Satellite Date Start Highest point End Downlink Frequencies (MHz)
Time Altitude Azimuth
ITAMSAT 1 10 Feb 14:30:52 14:36:03 87° 254° (WSW) 14:41:18 435.822/435.867
YUBILEINY 10 Feb 14:40:21 14:49:13 69° 80° (E) 14:57:57 435.215
DANDE 10 Feb 14:44:53 14:50:45 31° 276° (W) 14:55:26 436.750
Cosmos 2491 10 Feb 14:46:30 14:54:17 39° 86° (E) 15:02:04 435.465 / 435.565
ITUPSAT 1 10 Feb 14:47:29 14:52:20 76° 102° (ESE) 14:57:09 437.325
KKS-1 10 Feb 14:51:21 14:52:14 10° 90° (E) 14:53:07 437.445
BEESAT 10 Feb 14:55:35 15:00:24 88° 290° (WNW) 15:05:12 436.000
JAS-2 10 Feb 15:11:51 15:17:05 20° 269° (W) 15:22:04 435.910
AO-7 10 Feb 15:12:45 15:21:05 75° 69° (ENE) 15:29:26 29.400- 29.500
HORYU 2 10 Feb 15:14:53 15:18:10 21° 66° (ENE) 15:21:29 437.375
M-CUBED/EXP-1 PRIME 10 Feb 15:17:31 15:20:56 40° 68° (ENE) 15:24:10 437.505
ISS 10 Feb 15:26:02 15:28:48 26° 135° (SE) 15:31:33 145.825
AUBIESAT-1 10 Feb 15:26:42 15:30:08 42° 68° (ENE) 15:33:24 437.475
Gurwin Techsat 1B 10 Feb 15:40:14 15:42:06 12° 272° (W) 15:43:58 435.225
RS-15 10 Feb 15:45:07 15:54:07 25° 345° (NNW) 16:03:28 29.354- 29.394
SWISSCUBE 10 Feb 15:48:45 15:52:40 25° 294° (WNW) 15:56:33 437.505
Cosmos 2504 10 Feb 15:50:39 15:58:48 43° 73° (ENE) 16:06:22 435.465 / 435.565
STARS 10 Feb 16:06:12 16:10:17 38° 98° (E) 16:14:21 437.465
MOZHAYETS 4 10 Feb 16:23:10 16:27:38 44° 99° (E) 16:32:04
KKS-1 10 Feb 16:24:52 16:29:17 70° 285° (WNW) 16:33:41 437.445
ITUPSAT 1 10 Feb 16:27:20 16:29:33 13° 300° (WNW) 16:31:45 437.325
BEESAT 3 10 Feb 16:28:48 16:31:16 16° 110° (ESE) 16:33:46 437.485
Cubesat XI-IV 10 Feb 16:30:49 16:33:07 13° 58° (ENE) 16:35:27 437.490
BEESAT 10 Feb 16:36:24 16:37:26 11° 301° (WNW) 16:38:27 436.000
YUBILEINY 10 Feb 16:38:23 16:45:10 26° 279° (W) 16:51:56 435.215
Cosmos 2491 10 Feb 16:42:39 16:50:54 47° 285° (WNW) 16:59:14 435.465 / 435.565
BRITE-PL 10 Feb 16:49:00 16:49:53 10° 58° (ENE) 16:50:47 437.365/2234.400
HORYU 2 10 Feb 16:50:26 16:54:31 37° 262° (W) 16:58:37 437.375
BEESAT 2 10 Feb 16:53:50 16:56:43 19° 112° (ESE) 16:59:38 435.950
M-CUBED/EXP-1 PRIME 10 Feb 16:54:14 16:55:43 12° 261° (W) 16:57:10 437.505
O/OREOS (USA 219) 10 Feb 16:55:31 16:58:30 17° 54° (NE) 17:01:28 437.305
ISS 10 Feb 17:02:04 17:05:08 38° 331° (NNW) 17:08:12 145.825
AUBIESAT-1 10 Feb 17:03:39 17:04:52 11° 261° (W) 17:06:05 437.475
CUBESAT XI-V 10 Feb 17:07:30 17:09:47 13° 90° (E) 17:12:02 437.345
AO-7 10 Feb 17:08:11 17:14:33 24° 267° (W) 17:20:58 29.400- 29.500
AO-85 10 Feb 17:35:26 17:37:46 13° 32° (NNE) 17:40:02 145.980
STARS 10 Feb 17:43:14 17:46:24 20° 295° (WNW) 17:49:33 437.465
Cosmos 2504 10 Feb 17:44:14 17:52:04 41° 274° (W) 17:59:25 435.465 / 435.565
GOMX 1 10 Feb 17:48:04 17:51:39 19° 64° (ENE) 17:55:08 467.674
CUTE-I 10 Feb 17:53:09 17:58:25 69° 74° (ENE) 18:03:45 437.470
LilacSat-2 10 Feb 17:58:53 18:02:40 62° 75° (ENE) 18:06:25 437.200
MOZHAYETS 4 10 Feb 18:01:10 18:04:28 20° 295° (WNW) 18:07:46
RS-15 10 Feb 18:02:33 18:12:12 27° 21° (NNE) 18:22:03 29.354- 29.394
BEESAT 3 10 Feb 18:04:51 18:08:40 45° 307° (NW) 18:12:32 437.485
Cubesat XI-IV 10 Feb 18:07:04 18:12:24 90° 253° (WSW) 18:17:47 437.490
GONETS M04 10 Feb 18:13:16 18:15:07 11° 54° (NE) 18:16:57
BRITE-PL 10 Feb 18:21:45 18:27:24 69° 75° (ENE) 18:32:56 437.365/2234.400
BEESAT 2 10 Feb 18:30:35 18:34:22 38° 308° (NW) 18:38:10 435.950
O/OREOS (USA 219) 10 Feb 18:33:46 18:38:16 56° 252° (WSW) 18:42:45 437.305
HO-68 10 Feb 18:36:26 18:41:58 25° 58° (ENE) 18:47:32 435.675
ISS 10 Feb 18:40:19 18:42:16 15° 351° (N) 18:44:13 145.825
CUBESAT XI-V 10 Feb 18:42:55 18:47:35 62° 286° (WNW) 18:52:11 437.345
AIST 2 10 Feb 18:54:03 18:57:54 38° 116° (ESE) 19:01:48 435.215
DOVE 4 10 Feb 19:01:35 19:06:25 45° 72° (ENE) 19:11:01 437.250
CANX-2 10 Feb 19:02:37 19:05:35 19° 66° (ENE) 19:08:33 2200.000
AO-85 10 Feb 19:14:22 19:19:30 58° 53° (NE) 19:24:11 145.980
GOMX 1 10 Feb 19:23:56 19:29:17 61° 260° (W) 19:34:26 467.674
CUTE-I 10 Feb 19:36:01 19:38:58 15° 270° (W) 19:41:56 437.470
COMPASS 1 10 Feb 19:41:44 19:45:06 24° 68° (ENE) 19:48:30 437.405
STRAND 1 10 Feb 19:42:41 19:47:50 63° 102° (ESE) 19:52:56 437.568
PCSat 10 Feb 19:46:53 19:52:08 45° 55° (NE) 19:57:19 145.827
Oscar 11 10 Feb 19:50:06 19:51:22 11° 62° (ENE) 19:52:39 145.826/435.025
CINEMA 3 10 Feb 19:50:16 19:54:42 48° 73° (ENE) 19:58:57 145.822/145.860
CUTE 1.7 + AOD 2 10 Feb 19:51:43 19:55:50 57° 74° (ENE) 20:00:00 437.475
Cubesat XI-IV 10 Feb 19:52:06 19:53:11 11° 272° (W) 19:54:16 437.490
CUBEBUG 2 10 Feb 19:53:05 19:56:00 18° 66° (ENE) 19:58:53 437.445
UWE-3 10 Feb 19:53:07 19:55:03 13° 64° (ENE) 19:56:58 435.000/436.395/437.385
PRISM 10 Feb 19:56:19 19:59:50 25° 96° (E) 20:03:17 437.425
SEEDS 10 Feb 19:56:41 20:00:42 48° 73° (ENE) 20:04:45 437.485
BRITE-PL 10 Feb 20:02:41 20:06:16 17° 270° (W) 20:09:48 437.365/2234.400
GONETS M04 10 Feb 20:05:33 20:14:13 57° 77° (ENE) 20:22:51
AAUSAT CUBESAT 2 10 Feb 20:08:59 20:12:50 39° 72° (ENE) 20:16:44 437.432
RS-15 10 Feb 20:15:46 20:27:49 63° 50° (NE) 20:40:02 29.354- 29.394
ISS 10 Feb 20:17:35 20:19:43 16° 12° (NNE) 20:21:49 145.825
HO-68 10 Feb 20:21:56 20:29:03 69° 256° (WSW) 20:36:15 435.675
AIST 2 10 Feb 20:33:10 20:36:31 23° 314° (NW) 20:39:54 435.215
CANX-2 10 Feb 20:37:16 20:41:10 37° 263° (W) 20:45:07 2200.000
DOVE 4 10 Feb 20:40:30 20:44:15 21° 266° (W) 20:47:55 437.250
ZACube-1 10 Feb 20:43:10 20:46:51 31° 70° (ENE) 20:50:31 437.345
Cosmos 2499 10 Feb 20:49:17 20:57:20 47° 74° (ENE) 21:04:46 435.465 / 435.565
FUNcube-1 10 Feb 20:51:35 20:55:25 36° 71° (ENE) 20:59:14 145.935
AO-85 10 Feb 20:56:08 20:59:26 18° 253° (WSW) 21:02:34 145.980
HUMSAT D 10 Feb 20:56:16 20:58:04 13° 63° (ENE) 20:59:53 437.325/437.525
DELFI C3 10 Feb 21:15:47 21:19:36 49° 73° (ENE) 21:23:29 145.870
COMPASS 1 10 Feb 21:17:02 21:20:35 27° 265° (W) 21:24:10 437.405
Oscar 11 10 Feb 21:22:37 21:26:54 72° 258° (WSW) 21:31:13 145.826/435.025
STRAND 1 10 Feb 21:23:12 21:26:28 17° 299° (WNW) 21:29:44 437.568
UWE-3 10 Feb 21:26:53 21:31:04 57° 259° (W) 21:35:13 435.000/436.395/437.385
CUBEBUG 2 10 Feb 21:28:18 21:32:23 39° 262° (W) 21:36:22 437.445
CINEMA 3 10 Feb 21:29:10 21:32:03 16° 267° (W) 21:34:51 145.822/145.860
CUTE 1.7 + AOD 2 10 Feb 21:30:27 21:32:03 12° 270° (W) 21:33:39 437.475
PCSat 10 Feb 21:30:50 21:35:15 26° 252° (WSW) 21:39:39 145.827
PRISM 10 Feb 21:31:35 21:35:06 26° 292° (WNW) 21:38:34 437.425
SEEDS 10 Feb 21:34:30 21:36:42 14° 269° (W) 21:38:53 437.485
ESTCUBE 1 10 Feb 21:43:20 21:44:29 11° 60° (ENE) 21:45:38 437.505/2401.250
AAUSAT CUBESAT 2 10 Feb 21:45:52 21:48:31 16° 268° (W) 21:51:12 437.432
ANTELSAT 10 Feb 21:50:35 21:51:49 11° 90° (E) 21:53:03 437.575/2403.000
ISS 10 Feb 21:53:33 21:56:44 50° 31° (NNE) 21:59:54 145.825
TIGRISAT 10 Feb 21:56:35 21:58:25 12° 91° (E) 22:00:16 435.000
GONETS M04 10 Feb 22:03:07 22:10:31 32° 277° (W) 22:17:56
AIST 1 10 Feb 22:07:30 22:11:52 79° 80° (E) 22:16:10
HO-68 10 Feb 22:17:03 22:18:00 10° 274° (W) 22:18:56 435.675
ZACube-1 10 Feb 22:19:57 22:23:11 21° 266° (W) 22:26:25 437.345
RS-15 10 Feb 22:28:49 22:39:53 43° 252° (WSW) 22:51:04 29.354- 29.394
FUNcube-1 10 Feb 22:28:54 22:31:48 18° 267° (W) 22:34:42 145.935
HUMSAT D 10 Feb 22:29:15 22:33:14 55° 259° (W) 22:37:16 437.325/437.525
VELOX 1 10 Feb 22:34:00 22:37:56 31° 69° (ENE) 22:41:54 145.980
UNISAT 6 10 Feb 22:39:44 22:43:49 39° 98° (E) 22:47:59 437.425
Cosmos 2499 10 Feb 22:42:50 22:50:11 36° 275° (W) 22:57:03 435.465 / 435.565
AISAT 10 Feb 22:50:25 22:54:44 49° 72° (ENE) 22:59:03 437.250
50 SAT 10 Feb 22:51:27 22:55:04 55° 74° (ENE) 22:58:44 437.505
DELFI C3 10 Feb 22:53:07 22:54:48 12° 269° (W) 22:56:31 145.870
UKube-1 10 Feb 22:57:49 23:02:01 52° 72° (ENE) 23:06:15 .
SPROUT 10 Feb 23:06:32 23:09:44 21° 66° (ENE) 23:12:56 437.525
CUBEBUG 1 10 Feb 23:07:08 23:11:29 59° 73° (ENE) 23:15:52 437.445
DX 1 10 Feb 23:11:26 23:15:50 88° 71° (ENE) 23:20:15 434.975-435.025
POPSAT HIP 1 10 Feb 23:11:45 23:14:52 20° 94° (E) 23:17:59 437.405
NANOSAT C BR1 10 Feb 23:15:42 23:18:58 22° 94° (E) 23:22:12 145.865
ESTCUBE 1 10 Feb 23:16:05 23:20:36 83° 256° (WSW) 23:25:11 437.505/2401.250
DUCHIFAT 1 10 Feb 23:16:43 23:19:55 21° 94° (E) 23:23:06 145.980
QB50P1 10 Feb 23:23:55 23:27:32 27° 96° (E) 23:31:08 145.935-145.965
ANTELSAT 10 Feb 23:24:37 23:28:56 66° 286° (WNW) 23:33:20 437.575/2403.000
ISS 10 Feb 23:30:35 23:32:56 19° 228° (SW) 23:35:16 145.825
TIGRISAT 10 Feb 23:31:12 23:35:27 58° 286° (WNW) 23:39:47 435.000
VELOX 1 11 Feb 00:10:47 00:14:25 24° 265° (W) 00:18:05 145.980
BUGSAT 1 11 Feb 00:13:23 00:17:17 47° 99° (E) 00:21:10 437.445
POLYITAN 1 11 Feb 00:16:32 00:20:44 71° 284° (WNW) 00:24:55 437.675
QB50P2 11 Feb 00:17:09 00:21:20 68° 286° (WNW) 00:25:31 145.880/145.840
UNISAT 6 11 Feb 00:17:12 00:20:18 19° 294° (WNW) 00:23:26 437.425
PHONESAT 2.4 11 Feb 00:20:39 00:22:51 17° 151° (SSE) 00:25:04 2401.200-2431.200
ITUPSAT 1 11 Feb 00:20:59 00:21:52 10° 58° (ENE) 00:22:43 437.325
BEESAT 11 Feb 00:27:28 00:29:31 13° 60° (ENE) 00:31:32 436.000
AISAT 11 Feb 00:28:49 00:31:30 16° 268° (W) 00:34:10 437.250
UKube-1 11 Feb 00:36:06 00:38:23 14° 268° (W) 00:40:40 .
SPROUT 11 Feb 00:41:32 00:45:30 35° 263° (W) 00:49:27 437.525
TISAT 1 11 Feb 00:45:58 00:50:11 85° 258° (WSW) 00:54:26 437.305
BEESAT 3 11 Feb 00:45:59 00:47:56 13° 40° (NE) 00:49:53 437.485
CUBEBUG 1 11 Feb 00:46:08 00:48:08 13° 269° (W) 00:50:10 437.445
POPSAT HIP 1 11 Feb 00:46:57 00:50:44 33° 290° (WNW) 00:54:31 437.405
NANOSAT C BR1 11 Feb 00:51:03 00:54:44 31° 290° (WNW) 00:58:26 145.865
DUCHIFAT 1 11 Feb 00:51:58 00:55:40 31° 290° (WNW) 00:59:22 145.980
Cosmos 2491 11 Feb 00:56:59 01:02:49 19° 62° (ENE) 01:08:36 435.465 / 435.565
QB50P1 11 Feb 00:59:48 01:03:13 25° 292° (WNW) 01:06:38 145.935-145.965
BEESAT 2 11 Feb 01:11:50 01:14:16 15° 42° (NE) 01:16:41 435.950
SWISSCUBE 11 Feb 01:17:04 01:21:32 41° 70° (ENE) 01:26:01 437.505
CUSAT 1 11 Feb 01:24:21 01:31:46 44° 90° (E) 01:39:12 437.405
Oscar 19 11 Feb 01:32:35 01:37:19 36° 97° (E) 01:41:59 437.125/150
KKS-1 11 Feb 01:49:46 01:51:09 11° 61° (ENE) 01:52:32 437.445
YUBILEINY 11 Feb 01:50:00 01:54:15 15° 75° (ENE) 01:58:31 435.215
BUGSAT 1 11 Feb 01:50:07 01:52:16 14° 296° (WNW) 01:54:26 437.445
ITUPSAT 1 11 Feb 01:54:09 01:58:55 87° 76° (ENE) 02:03:44 437.325
PHONESAT 2.4 11 Feb 01:56:30 01:59:43 54° 166° (SSE) 02:02:55 2401.200-2431.200
BEESAT 11 Feb 02:01:53 02:06:39 77° 258° (WSW) 02:11:26 436.000
DANDE 11 Feb 02:06:40 02:14:09 53° 91° (E) 02:22:19 436.750
Gurwin Techsat 1B 11 Feb 02:12:40 02:17:27 33° 96° (E) 02:22:12 435.225
JAS-2 11 Feb 02:19:33 02:25:11 67° 102° (ESE) 02:30:22 435.910
BEESAT 3 11 Feb 02:22:14 02:26:12 77° 240° (WSW) 02:30:08 437.485
ITAMSAT 1 11 Feb 02:43:57 02:48:40 33° 97° (E) 02:53:21 435.822/435.867
BEESAT 2 11 Feb 02:48:36 02:52:34 63° 240° (WSW) 02:56:28 435.950
Cosmos 2491 11 Feb 02:52:09 03:00:57 88° 83° (E) 03:09:45 435.465 / 435.565
SWISSCUBE 11 Feb 02:55:56 02:59:29 21° 266° (W) 03:03:05 437.505
STARS 11 Feb 03:02:54 03:06:53 35° 70° (ENE) 03:10:53 437.465
CUSAT 1 11 Feb 03:06:28 03:14:02 44° 287° (WNW) 03:21:35 437.405
Oscar 19 11 Feb 03:12:10 03:16:29 28° 294° (WNW) 03:20:46 437.125/150
AIST 2 11 Feb 03:15:25 03:19:01 27° 48° (NE) 03:22:34 435.215
AO-7 11 Feb 03:15:27 03:21:48 23° 93° (E) 03:28:04 29.400- 29.500
KKS-1 11 Feb 03:22:38 03:27:06 77° 258° (WSW) 03:31:35 437.445
MOZHAYETS 4 11 Feb 03:25:03 03:29:19 41° 71° (ENE) 03:33:38
PHONESAT 2.4 11 Feb 03:33:37 03:36:53 76° 184° (S) 03:40:09 2401.200-2431.200
YUBILEINY 11 Feb 03:40:43 03:49:28 78° 95° (E) 03:58:19 435.215
DANDE 11 Feb 03:50:08 03:57:23 38° 291° (WNW) 04:05:08 436.750
Gurwin Techsat 1B 11 Feb 03:52:39 03:57:20 32° 293° (WNW) 04:02:00 435.225
JAS-2 11 Feb 04:06:10 04:09:34 17° 302° (WNW) 04:12:49 435.910
CUBESAT XI-V 11 Feb 04:11:12 04:13:43 14° 62° (ENE) 04:16:14 437.345
ITAMSAT 1 11 Feb 04:23:28 04:28:02 31° 293° (WNW) 04:32:36 435.822/435.867
SO-50 11 Feb 04:27:40 04:31:56 31° 113° (ESE) 04:36:16 436.795
Cosmos 2504 11 Feb 04:28:15 04:35:50 36° 85° (E) 04:43:40 435.465 / 435.565
M-CUBED/EXP-1 PRIME 11 Feb 04:31:04 04:34:04 28° 103° (ESE) 04:37:13 437.505
AUBIESAT-1 11 Feb 04:39:40 04:42:45 29° 103° (ESE) 04:46:00 437.475
STARS 11 Feb 04:39:58 04:43:20 21° 266° (W) 04:46:43 437.465
HORYU 2 11 Feb 04:40:58 04:45:09 39° 99° (E) 04:49:19 437.375
Cosmos 2491 11 Feb 04:51:07 04:56:32 18° 283° (WNW) 05:01:56 435.465 / 435.565
AIST 2 11 Feb 04:53:52 04:57:29 29° 246° (WSW) 05:01:03 435.215
MOZHAYETS 4 11 Feb 05:03:26 05:06:41 19° 268° (W) 05:09:57
AO-7 11 Feb 05:06:58 05:15:17 75° 291° (WNW) 05:23:32 29.400- 29.500
PHONESAT 2.4 11 Feb 05:10:55 05:14:00 37° 199° (SSW) 05:17:02 2401.200-2431.200
STRAND 1 11 Feb 05:23:21 05:25:16 12° 58° (ENE) 05:27:13 437.568
YUBILEINY 11 Feb 05:40:38 05:47:16 23° 296° (WNW) 05:53:59 435.215
CUBESAT XI-V 11 Feb 05:45:53 05:50:33 65° 259° (W) 05:55:15 437.345
M-CUBED/EXP-1 PRIME 11 Feb 06:06:15 06:08:35 17° 297° (WNW) 06:10:59 437.505
SO-50 11 Feb 06:07:49 06:12:21 36° 311° (NW) 06:16:57 436.795
CUTE-I 11 Feb 06:10:37 06:15:09 27° 95° (E) 06:19:41 437.470
AUBIESAT-1 11 Feb 06:14:51 06:17:11 17° 297° (WNW) 06:19:36 437.475
HORYU 2 11 Feb 06:18:11 06:21:27 20° 295° (WNW) 06:24:43 437.375
Cosmos 2504 11 Feb 06:20:34 06:28:53 52° 285° (WNW) 06:37:32 435.465 / 435.565
Cubesat XI-IV 11 Feb 06:24:29 06:29:26 36° 97° (E) 06:34:22 437.490
BRITE-PL 11 Feb 06:28:25 06:31:45 19° 91° (E) 06:34:56 437.365/2234.400
PRISM 11 Feb 06:46:24 06:49:26 20° 66° (ENE) 06:52:29 437.425
STRAND 1 11 Feb 06:58:33 07:03:40 90° 140° (SE) 07:08:50 437.568
AO-7 11 Feb 07:01:37 07:06:42 18° 312° (NW) 07:11:46 29.400- 29.500
LilacSat-2 11 Feb 07:06:26 07:10:15 85° 283° (WNW) 07:14:02 437.200
O/OREOS (USA 219) 11 Feb 07:08:40 07:11:24 16° 100° (E) 07:14:10 437.305
GONETS M04 11 Feb 07:18:16 07:19:56 11° 72° (ENE) 07:21:36
GOMX 1 11 Feb 07:26:32 07:30:38 37° 97° (E) 07:34:32 467.674
CUTE-I 11 Feb 07:50:18 07:55:17 39° 292° (WNW) 08:00:14 437.470
HO-68 11 Feb 07:50:27 07:56:01 23° 93° (E) 08:01:32 435.675
Cubesat XI-IV 11 Feb 08:04:45 08:09:23 30° 294° (WNW) 08:14:00 437.490
BRITE-PL 11 Feb 08:06:05 08:10:30 39° 290° (WNW) 08:14:35 437.365/2234.400
PRISM 11 Feb 08:20:43 08:24:32 35° 262° (W) 08:28:23 437.425
CANX-2 11 Feb 08:22:01 08:25:58 35° 97° (E) 08:29:55 2200.000
DOVE 4 11 Feb 08:38:11 08:42:24 68° 284° (WNW) 08:46:29 437.250
O/OREOS (USA 219) 11 Feb 08:46:03 08:50:22 47° 296° (WNW) 08:54:46 437.305
ANTELSAT 11 Feb 08:50:43 08:51:35 11° 61° (ENE) 08:52:28 437.575/2403.000
TIGRISAT 11 Feb 08:56:23 08:57:54 12° 62° (ENE) 08:59:26 435.000
COMPASS 1 11 Feb 08:59:12 09:03:16 44° 99° (E) 09:07:18 437.405
GOMX 1 11 Feb 09:05:21 09:08:27 19° 295° (WNW) 09:11:27 467.674
GONETS M04 11 Feb 09:06:20 09:14:52 65° 92° (E) 09:23:27
Oscar 11 11 Feb 09:10:28 09:13:43 20° 93° (E) 09:16:58 145.826/435.025
CUTE 1.7 + AOD 2 11 Feb 09:12:11 09:16:27 71° 285° (WNW) 09:20:44 437.475
SEEDS 11 Feb 09:15:54 09:20:12 85° 282° (WNW) 09:24:27 437.485
UWE-3 11 Feb 09:16:33 09:20:06 26° 96° (E) 09:23:41 435.000/436.395/437.385
CUBEBUG 2 11 Feb 09:18:39 09:22:35 37° 98° (E) 09:26:34 437.445
CINEMA 3 11 Feb 09:21:41 09:25:49 67° 284° (WNW) 09:29:58 145.822/145.860
Cosmos 2499 11 Feb 09:24:40 09:32:33 40° 86° (E) 09:40:33 435.465 / 435.565
AAUSAT CUBESAT 2 11 Feb 09:26:20 09:30:34 76° 103° (ESE) 09:34:45 437.432
AO-85 11 Feb 09:29:06 09:33:07 22° 109° (ESE) 09:37:14 145.980
HO-68 11 Feb 09:37:05 09:44:14 66° 290° (WNW) 09:51:19 435.675
UNISAT 6 11 Feb 09:38:51 09:42:46 34° 70° (ENE) 09:46:39 437.425
CANX-2 11 Feb 09:58:24 10:01:36 21° 293° (WNW) 10:04:48 2200.000
POPSAT HIP 1 11 Feb 10:05:02 10:07:42 16° 65° (ENE) 10:10:21 437.405
ZACube-1 11 Feb 10:06:44 10:10:57 67° 102° (ESE) 10:15:14 437.345
NANOSAT C BR1 11 Feb 10:08:35 10:11:23 18° 65° (ENE) 10:14:12 145.865
DUCHIFAT 1 11 Feb 10:09:24 10:12:08 17° 65° (ENE) 10:14:52 145.980
HUMSAT D 11 Feb 10:13:03 10:16:21 22° 94° (E) 10:19:40 437.325/437.525
FUNcube-1 11 Feb 10:14:59 10:19:13 79° 102° (ESE) 10:23:31 145.935
QB50P1 11 Feb 10:16:49 10:20:05 22° 67° (ENE) 10:23:21 145.935-145.965
ANTELSAT 11 Feb 10:23:25 10:27:42 75° 257° (WSW) 10:32:00 437.575/2403.000
DELFI C3 11 Feb 10:28:20 10:32:24 84° 101° (ESE) 10:36:27 145.870
PCSat 11 Feb 10:28:40 10:33:41 40° 111° (ESE) 10:38:43 145.827
TIGRISAT 11 Feb 10:29:47 10:34:04 67° 258° (WSW) 10:38:19 435.000
COMPASS 1 11 Feb 10:35:50 10:38:29 16° 295° (WNW) 10:41:08 437.405
AIST 1 11 Feb 10:36:36 10:40:48 46° 93° (E) 10:45:02
RS-15 11 Feb 10:40:43 10:50:17 36° 105° (ESE) 11:00:15 29.354- 29.394
Oscar 11 11 Feb 10:45:58 10:49:57 35° 289° (WNW) 10:53:54 145.826/435.025
UWE-3 11 Feb 10:52:59 10:56:30 26° 291° (WNW) 11:00:05 435.000/436.395/437.385
CUBEBUG 2 11 Feb 10:56:02 10:58:58 19° 294° (WNW) 11:01:56 437.445
CUBEBUG 1 11 Feb 10:58:38 10:59:27 10° 89° (E) 11:00:16 437.445
DX 1 11 Feb 11:01:04 11:03:31 15° 92° (E) 11:05:59 434.975-435.025
BUGSAT 1 11 Feb 11:03:07 11:06:54 34° 71° (ENE) 11:10:41 437.445
AAUSAT CUBESAT 2 11 Feb 11:04:51 11:05:26 10° 298° (WNW) 11:06:01 437.432
GONETS M04 11 Feb 11:05:11 11:12:20 28° 293° (WNW) 11:19:33
AO-85 11 Feb 11:07:56 11:13:14 58° 307° (NW) 11:18:41 145.980
POLYITAN 1 11 Feb 11:08:56 11:13:10 85° 76° (ENE) 11:17:24 437.675
ESTCUBE 1 11 Feb 11:09:21 11:12:47 21° 94° (E) 11:16:11 437.505/2401.250
QB50P2 11 Feb 11:09:29 11:13:44 88° 75° (ENE) 11:17:59 145.880/145.840
UNISAT 6 11 Feb 11:16:23 11:19:34 20° 266° (W) 11:22:46 437.425
Cosmos 2499 11 Feb 11:17:06 11:25:28 48° 285° (WNW) 11:34:01 435.465 / 435.565
HO-68 11 Feb 11:27:25 11:30:35 13° 310° (NW) 11:33:46 435.675
POPSAT HIP 1 11 Feb 11:39:05 11:43:08 44° 261° (W) 11:47:12 437.405
NANOSAT C BR1 11 Feb 11:42:50 11:46:50 41° 261° (W) 11:50:50 145.865
DUCHIFAT 1 11 Feb 11:43:30 11:47:31 42° 261° (W) 11:51:32 145.980
ZACube-1 11 Feb 11:45:16 11:46:43 12° 297° (WNW) 11:48:10 437.345
HUMSAT D 11 Feb 11:48:21 11:52:01 30° 290° (WNW) 11:55:41 437.325/437.525
QB50P1 11 Feb 11:51:54 11:55:42 32° 263° (W) 11:59:30 145.935-145.965
50 SAT 11 Feb 11:56:35 12:00:25 78° 102° (ESE) 12:04:13 437.505
VELOX 1 11 Feb 11:59:53 12:04:17 62° 102° (ESE) 12:08:37 145.980
CUSAT 1 11 Feb 12:03:25 12:07:50 22° 63° (ENE) 12:11:26 437.405
PCSat 11 Feb 12:12:21 12:17:09 31° 310° (NW) 12:21:59 145.827
AIST 1 11 Feb 12:15:59 12:18:40 16° 290° (WNW) 12:21:23
AISAT 11 Feb 12:16:51 12:21:17 82° 285° (WNW) 12:25:40 437.250
UKube-1 11 Feb 12:20:42 12:25:04 85° 280° (W) 12:29:21 .
SPROUT 11 Feb 12:27:22 12:31:20 37° 98° (E) 12:35:16 437.525
JAS-2 11 Feb 12:30:12 12:36:53 36° 66° (ENE) 12:43:01 435.910
TISAT 1 11 Feb 12:31:25 12:33:43 14° 92° (E) 12:36:01 437.305
CUBEBUG 1 11 Feb 12:31:52 12:36:13 68° 285° (WNW) 12:40:31 437.445
DX 1 11 Feb 12:35:48 12:40:00 49° 288° (WNW) 12:44:11 434.975-435.025
BUGSAT 1 11 Feb 12:39:16 12:42:21 20° 266° (W) 12:45:26 437.445
ESTCUBE 1 11 Feb 12:45:30 12:49:42 38° 290° (WNW) 12:53:53 437.505/2401.250
Oscar 19 11 Feb 12:49:17 12:54:19 53° 71° (ENE) 12:59:22 437.125/150
DANDE 11 Feb 12:49:25 12:55:48 37° 68° (ENE) 13:00:44 436.750
RS-15 11 Feb 12:50:44 13:01:50 68° 308° (NW) 13:13:38 29.354- 29.394
AO-85 11 Feb 12:52:13 12:54:57 14° 327° (NNW) 12:57:42 145.980
SO-50 11 Feb 12:58:51 13:03:08 30° 47° (NE) 13:07:17 436.795
SWISSCUBE 11 Feb 13:20:26 13:20:53 10° 89° (E) 13:21:21 437.505
Gurwin Techsat 1B 11 Feb 13:33:40 13:38:48 52° 71° (ENE) 13:43:58 435.225
VELOX 1 11 Feb 13:38:05 13:40:14 13° 298° (WNW) 13:42:22 145.980
CUSAT 1 11 Feb 13:45:17 13:50:28 39° 271° (W) 13:54:27 437.405
YUBILEINY 11 Feb 13:51:10 13:59:20 39° 72° (ENE) 14:07:24 435.215
ITUPSAT 1 11 Feb 13:55:17 13:59:03 22° 94° (E) 14:02:47 437.325
Cosmos 2491 11 Feb 13:59:59 14:05:52 21° 78° (ENE) 14:11:44 435.465 / 435.565
ITAMSAT 1 11 Feb 14:01:51 14:06:50 51° 71° (ENE) 14:11:53 435.822/435.867
BEESAT 11 Feb 14:02:23 14:06:27 27° 95° (E) 14:10:28 436.000
SPROUT 11 Feb 14:03:59 14:07:04 20° 294° (WNW) 14:10:07 437.525
TISAT 1 11 Feb 14:05:38 14:09:39 46° 288° (WNW) 14:13:37 437.305
AO-7 11 Feb 14:14:22 14:21:41 35° 58° (ENE) 14:28:59 29.400- 29.500
JAS-2 11 Feb 14:14:23 14:21:42 48° 261° (W) 14:28:27 435.910
